Location: Boiro
(42.6475°N, 8.8834°W)
Time: 08:23:52
(UTC+01:00)

Vanguard 3 - Pass Details

Date: 01 December 2021
Orbit: 508 x 3260 km, 33.3° (Epoch: 24 January)

Event Time Altitude Azimuth Distance (km) Brightness Sun altitude
Rises 02:22:06 0° 180° (S) 6,769 - -65.9°
Reaches altitude 10° 02:29:59 10° 160° (SSE) 6,075 - -65.1°
Exits shadow 02:37:53 15° 136° (SE) 5,780 11.3 -64.1°
Maximum altitude 02:38:42 15° 133° (SE) 5,776 11.4 -64.0°
Drops below altitude 10° 02:47:19 10° 106° (ESE) 6,059 11.7 -62.9°
Sets 02:54:57 0° 87° (E) 6,754 12.1 -61.9°
